Weather History for KMZG - February, 2014

Change the Weather History Date:

Saturday, February 8, 2014

  Actual Average Record
Temperature  
Mean Temperature 53 °F -  
Max Temperature 62 °F - - ()
Min Temperature 46 °F - - ()
Degree Days  
Heating Degree Days 12    
Growing Degree Days 3 (Base 50)    
Moisture  
Dew Point 51 °F    
Average Humidity 93    
Maximum Humidity 100    
Minimum Humidity 87    
Precipitation  
Precipitation 0.00 in - - ()
Sea Level Pressure  
Sea Level Pressure 30.17 in    
Wind  
Wind Speed 15 mph (NNE)    
Max Wind Speed 24 mph    
Max Gust Speed 30 mph    
Visibility 4 miles    
Events      
T = Trace of Precipitation, MM = Missing Value Source: NWS Daily Summary

Daily Weather History Graph

Daily Weather History Graph

Search for Another Location

Airport or City:

Trip Planner

Search our weather history database for the weather conditions in past years. The results will help you decide how hot, cold, wet, or windy it might be!

Date:

Astronomy

Feb. 08, 2014 Rise Set
Actual Time 7:07 AM CST 6:11 PM CST
Civil Twilight 6:43 AM CST 6:35 PM CST
Nautical Twilight 6:15 AM CST 7:02 PM CST
Astronomical Twilight 5:47 AM CST 7:30 PM CST
Moon 1:13 PM CST (2/8) 2:13 AM CST (2/8)
Length of Visible Light 11h 52m
Length of Day
11h 03m
Waxing Gibbous, 69% of the Moon is Illuminated
Feb 8
Waxing Gibbous
Feb 14
Full
Feb 22
Last Quarter
Mar 1
New
Mar 8
First Quarter

Hourly Weather History & Observations

Time (CST) Temp. Windchill Dew Point Humidity Pressure Visibility Wind Dir Wind Speed Gust Speed Precip Events Conditions
12:15 AM 48.2 °F - 46.4 °F 93% 30.18 in 6.0 mi North 23.0 mph - N/A   Overcast
12:35 AM 48.2 °F - 46.4 °F 93% 30.18 in 6.0 mi North 24.2 mph - N/A   Overcast
12:55 AM 48.2 °F - 46.4 °F 93% 30.18 in 6.0 mi North 23.0 mph - N/A   Overcast
1:15 AM 48.2 °F - 46.4 °F 93% 30.19 in 5.0 mi North 24.2 mph - N/A   Overcast
1:35 AM 48.2 °F - 44.6 °F 87% 30.18 in 5.0 mi North 23.0 mph 29.9 mph N/A   Overcast
1:55 AM 48.2 °F - 44.6 °F 87% 30.18 in 5.0 mi North 24.2 mph - N/A   Overcast
2:15 AM 46.4 °F 38.3 °F 44.6 °F 93% 30.17 in 4.0 mi North 23.0 mph 29.9 mph N/A   Overcast
2:35 AM 46.4 °F 38.7 °F 44.6 °F 93% 30.17 in 3.0 mi North 20.7 mph 26.5 mph N/A   Overcast
2:55 AM 46.4 °F 38.3 °F 46.4 °F 100% 30.17 in 3.0 mi North 23.0 mph 29.9 mph N/A   Overcast
3:15 AM 46.4 °F 38.7 °F 46.4 °F 100% 30.17 in 4.0 mi NNE 20.7 mph - N/A   Overcast
3:35 AM 46.4 °F 39.0 °F 46.4 °F 100% 30.17 in 4.0 mi NNE 19.6 mph 27.6 mph N/A   Overcast
3:55 AM 46.4 °F 39.0 °F 46.4 °F 100% 30.17 in 4.0 mi North 19.6 mph 25.3 mph N/A   Overcast
4:15 AM 48.2 °F - 46.4 °F 93% 30.17 in 4.0 mi North 20.7 mph - N/A   Overcast
4:35 AM 48.2 °F - 46.4 °F 93% 30.17 in 4.0 mi North 19.6 mph - N/A   Overcast
4:55 AM 48.2 °F - 46.4 °F 93% 30.16 in 4.0 mi NNE 19.6 mph 26.5 mph N/A   Overcast
5:15 AM 48.2 °F - 46.4 °F 93% 30.17 in 4.0 mi NNE 20.7 mph - N/A   Overcast
5:35 AM 48.2 °F - 46.4 °F 93% 30.17 in 4.0 mi NNE 17.3 mph - N/A   Overcast
5:55 AM 48.2 °F - 46.4 °F 93% 30.18 in 4.0 mi NNE 18.4 mph 24.2 mph N/A   Overcast
6:15 AM 48.2 °F - 48.2 °F 100% 30.19 in 5.0 mi NNE 16.1 mph - N/A   Overcast
6:35 AM 50.0 °F - 48.2 °F 94% 30.18 in 5.0 mi NNE 17.3 mph - N/A   Overcast
6:55 AM 50.0 °F - 48.2 °F 94% 30.18 in 5.0 mi NNE 18.4 mph - N/A   Overcast
7:15 AM 50.0 °F - 48.2 °F 94% 30.19 in 5.0 mi NNE 17.3 mph - N/A   Overcast
7:35 AM 50.0 °F - 48.2 °F 94% 30.19 in 5.0 mi NNE 16.1 mph - N/A   Overcast
7:55 AM 51.8 °F - 48.2 °F 88% 30.20 in 5.0 mi NNE 17.3 mph - N/A   Overcast
8:15 AM 50.0 °F - 48.2 °F 94% 30.21 in 5.0 mi NNE 13.8 mph 20.7 mph N/A   Overcast
8:35 AM 51.8 °F - 48.2 °F 88% 30.22 in 4.0 mi NNE 13.8 mph - N/A   Overcast
8:55 AM 51.8 °F - 50.0 °F 94% 30.22 in 5.0 mi NNE 11.5 mph 17.3 mph N/A   Overcast
9:15 AM 53.6 °F - 50.0 °F 88% 30.21 in 6.0 mi NNE 11.5 mph 18.4 mph N/A   Overcast
9:35 AM 51.8 °F - 50.0 °F 94% 30.22 in 4.0 mi NNE 13.8 mph - N/A   Overcast
9:55 AM 51.8 °F - 50.0 °F 94% 30.22 in 3.0 mi NNE 10.4 mph 19.6 mph N/A   Overcast
10:15 AM 51.8 °F - 50.0 °F 94% 30.23 in 3.0 mi NNE 13.8 mph - N/A   Overcast
10:35 AM 53.6 °F - 50.0 °F 88% 30.22 in 4.0 mi North 12.7 mph - N/A   Overcast
10:55 AM 53.6 °F - 51.8 °F 94% 30.22 in 5.0 mi NNE 8.1 mph 15.0 mph N/A   Overcast
11:15 AM 53.6 °F - 50.0 °F 88% 30.23 in 4.0 mi NNE 8.1 mph 15.0 mph N/A   Overcast
11:35 AM 53.6 °F - 50.0 °F 88% 30.22 in 5.0 mi North 8.1 mph 15.0 mph N/A   Overcast
11:55 AM 53.6 °F - 50.0 °F 88% 30.21 in 5.0 mi NNE 9.2 mph - N/A   Overcast
12:15 PM 53.6 °F - 51.8 °F 94% 30.19 in 6.0 mi NNE 5.8 mph - N/A   Overcast
12:35 PM 53.6 °F - 51.8 °F 94% 30.18 in 5.0 mi Variable 5.8 mph 11.5 mph N/A   Overcast
12:55 PM 53.6 °F - 51.8 °F 94% 30.17 in 4.0 mi North 6.9 mph - N/A   Overcast
1:15 PM 53.6 °F - 51.8 °F 94% 30.16 in 4.0 mi North 8.1 mph - N/A   Overcast
1:35 PM 53.6 °F - 51.8 °F 94% 30.15 in 4.0 mi Variable 3.5 mph 11.5 mph N/A   Overcast
1:55 PM 53.6 °F - 51.8 °F 94% 30.14 in 4.0 mi North 8.1 mph - N/A   Overcast
2:15 PM 53.6 °F - 51.8 °F 94% 30.13 in 4.0 mi North 5.8 mph - N/A   Overcast
2:35 PM 55.4 °F - 51.8 °F 88% 30.13 in 4.0 mi NNE 8.1 mph - N/A   Overcast
2:55 PM 53.6 °F - 51.8 °F 94% 30.13 in 4.0 mi North 9.2 mph - N/A   Overcast
3:15 PM 53.6 °F - 51.8 °F 94% 30.14 in 3.0 mi North 5.8 mph - N/A   Overcast
3:35 PM 53.6 °F - 51.8 °F 94% 30.14 in 2.5 mi North 9.2 mph - N/A   Overcast
3:55 PM 53.6 °F - 51.8 °F 94% 30.13 in 2.5 mi North 6.9 mph - N/A   Overcast
4:15 PM 53.6 °F - 51.8 °F 94% 30.13 in 2.5 mi North 8.1 mph - N/A   Overcast
4:35 PM 53.6 °F - 51.8 °F 94% 30.13 in 2.0 mi North 8.1 mph - N/A   Overcast
4:55 PM 55.4 °F - 53.6 °F 94% 30.13 in 2.0 mi NNE 8.1 mph - N/A   Overcast
5:15 PM 53.6 °F - 51.8 °F 94% 30.13 in 1.8 mi North 8.1 mph - N/A   Overcast
5:35 PM 53.6 °F - 53.6 °F 100% 30.13 in 2.0 mi Variable 3.5 mph - N/A   Overcast
5:55 PM 55.4 °F - 53.6 °F 94% 30.14 in 2.5 mi Variable 5.8 mph 11.5 mph N/A   Overcast
6:15 PM 53.6 °F - 53.6 °F 100% 30.14 in 2.0 mi Variable 6.9 mph - N/A   Overcast
6:35 PM 55.4 °F - 53.6 °F 94% 30.13 in 1.8 mi Variable 3.5 mph - N/A   Overcast
6:55 PM 55.4 °F - 53.6 °F 94% 30.13 in 3.0 mi ENE 3.5 mph - N/A   Overcast
7:15 PM 55.4 °F - 53.6 °F 94% 30.12 in 3.0 mi Variable 4.6 mph - N/A   Overcast
7:35 PM 55.4 °F - 55.4 °F 100% 30.12 in 2.0 mi Variable 4.6 mph - N/A   Overcast
7:55 PM 57.2 °F - 55.4 °F 94% 30.13 in 3.0 mi East 4.6 mph - N/A   Overcast
8:15 PM 57.2 °F - 55.4 °F 94% 30.13 in 3.0 mi East 4.6 mph - N/A   Overcast
8:35 PM 57.2 °F - 57.2 °F 100% 30.13 in 4.0 mi ESE 6.9 mph - N/A   Overcast
8:55 PM 59.0 °F - 57.2 °F 94% 30.13 in 5.0 mi ESE 4.6 mph - N/A   Overcast
9:15 PM 59.0 °F - 57.2 °F 94% 30.13 in 7.0 mi SE 4.6 mph - N/A   Overcast
9:35 PM 60.8 °F - 57.2 °F 88% 30.14 in 8.0 mi Calm Calm - N/A   Overcast
9:55 PM 60.8 °F - 57.2 °F 88% 30.15 in 8.0 mi Calm Calm - N/A   Overcast
10:15 PM 60.8 °F - 59.0 °F 94% 30.16 in 8.0 mi Calm Calm - N/A   Overcast
10:35 PM 60.8 °F - 59.0 °F 94% 30.15 in 8.0 mi Calm Calm - N/A   Mostly Cloudy
10:55 PM 60.8 °F - 59.0 °F 94% 30.15 in 9.0 mi Calm Calm - N/A   Overcast
11:15 PM 60.8 °F - 59.0 °F 94% 30.15 in 10.0 mi Calm Calm - N/A   Overcast
11:35 PM 60.8 °F - 59.0 °F 94% 30.14 in 9.0 mi Variable 4.6 mph - N/A   Overcast
11:55 PM 62.6 °F - 59.0 °F 88% 30.14 in 10.0 mi Calm Calm - N/A   Overcast